| time (UTC) | temp F | wind direction | speed MPH | gust MPH | rain 1hr in | rain 24hr in | rain mn in | humidity % | barometer mb |
| 20260502233056 | 46 | 142 | 1.0 | 7.0 | 0.00 | 0.00 | 0.00 | 52 | 1014.7 |
| 20260502231556 | 46 | 0 | 1.0 | 6.0 | 0.00 | 0.00 | 0.00 | 51 | 1014.6 |
| 20260502230055 | 47 | 186 | 0.0 | 3.0 | 0.00 | 0.00 | 0.00 | 52 | 1014.7 |
| 20260502224553 | 47 | 0 | 0.0 | 6.0 | 0.00 | 0.00 | 0.00 | 52 | 1014.4 |
| 20260502223054 | 48 | 137 | 1.0 | 4.0 | 0.00 | 0.00 | 0.00 | 50 | 1014.4 |
| 20260502221558 | 48 | 0 | 0.0 | 4.0 | 0.00 | 0.00 | 0.00 | 50 | 1014.2 |
| 20260502220051 | 49 | 86 | 1.0 | 6.0 | 0.00 | 0.00 | 0.00 | 49 | 1014.1 |
| 20260502214556 | 49 | 140 | 1.0 | 7.0 | 0.00 | 0.00 | 0.00 | 50 | 1014.0 |
| 20260502213050 | 47 | 0 | 0.0 | 6.0 | 0.00 | 0.00 | 0.00 | 51 | 1014.1 |
| 20260502211549 | 48 | 182 | 1.0 | 6.0 | 0.00 | 0.00 | 0.00 | 50 | 1013.9 |
| 20260502210106 | 48 | 113 | 0.0 | 7.0 | 0.00 | 0.00 | 0.00 | 51 | 1013.9 |
| 20260502204555 | 50 | 202 | 1.0 | 9.0 | 0.00 | 0.00 | 0.00 | 47 | 1013.9 |
| 20260502203051 | 48 | 0 | 1.0 | 8.0 | 0.00 | 0.00 | 0.00 | 50 | 1014.0 |
| 20260502201550 | 49 | 143 | 3.0 | 8.0 | 0.00 | 0.00 | 0.00 | 50 | 1014.1 |
| 20260502200054 | 50 | 102 | 2.0 | 7.0 | 0.00 | 0.00 | 0.00 | 48 | 1014.0 |
| 20260502194600 | 49 | 154 | 2.0 | 8.0 | 0.00 | 0.00 | 0.00 | 47 | 1014.2 |
| 20260502193047 | 51 | 70 | 2.0 | 12.0 | 0.00 | 0.00 | 0.00 | 46 | 1014.0 |
| 20260502191558 | 51 | 134 | 1.0 | 6.0 | 0.00 | 0.00 | 0.00 | 44 | 1014.1 |
| 20260502190051 | 51 | 161 | 2.0 | 14.0 | 0.00 | 0.00 | 0.00 | 44 | 1014.1 |
| 20260502184551 | 50 | 123 | 2.0 | 8.0 | 0.00 | 0.00 | 0.00 | 45 | 1014.2 |
| 20260502183054 | 53 | 103 | 3.0 | 8.0 | 0.00 | 0.00 | 0.00 | 42 | 1014.3 |
| 20260502181552 | 51 | 67 | 3.0 | 11.0 | 0.00 | 0.00 | 0.00 | 41 | 1014.3 |
| 20260502163054 | 51 | 162 | 1.0 | 7.0 | 0.00 | 0.00 | 0.00 | 46 | 1014.7 |
| 20260502161556 | 50 | 142 | 1.0 | 7.0 | 0.00 | 0.00 | 0.00 | 47 | 1015.0 |
| 20260502151602 | 49 | 194 | 2.0 | 6.0 | 0.00 | 0.00 | 0.00 | 48 | 1015.3 |
| 20260502130105 | 41 | 0 | 0.0 | 7.0 | 0.00 | 0.00 | 0.00 | 67 | 1015.7 |
| 20260502123059 | 40 | 0 | 0.0 | 2.0 | 0.00 | 0.00 | 0.00 | 69 | 1015.5 |
| 20260502121556 | 40 | 0 | 0.0 | 3.0 | 0.00 | 0.00 | 0.00 | 71 | 1015.6 |
| 20260502114608 | 39 | 0 | 0.0 | 2.0 | 0.00 | 0.00 | 0.00 | 75 | 1015.7 |
| 20260502113053 | 37 | 0 | 0.0 | 0.0 | 0.00 | 0.00 | 0.00 | 79 | 1015.6 |
| 20260502111558 | 37 | 0 | 0.0 | 1.0 | 0.00 | 0.00 | 0.00 | 80 | 1015.4 |
| 20260502110054 | 37 | 0 | 0.0 | 0.0 | 0.00 | 0.00 | 0.00 | 79 | 1015.4 |
| 20260502104555 | 37 | 0 | 0.0 | 0.0 | 0.00 | 0.00 | 0.00 | 78 | 1015.3 |
| 20260502103106 | 38 | 0 | 0.0 | 1.0 | 0.00 | 0.00 | 0.00 | 76 | 1015.2 |
| 20260502101559 | 38 | 0 | 0.0 | 1.0 | 0.00 | 0.00 | 0.00 | 74 | 1015.2 |
| 20260502100118 | 39 | 0 | 0.0 | 0.0 | 0.00 | 0.00 | 0.00 | 73 | 1015.3 |
| 20260502090110 | 41 | 0 | 0.0 | 1.0 | 0.00 | 0.00 | 0.00 | 65 | 1015.5 |
| 20260502070053 | 44 | 0 | 0.0 | 7.0 | 0.00 | 0.00 | 0.00 | 66 | 1015.0 |
| 20260502064603 | 44 | 0 | 0.0 | 3.0 | 0.00 | 0.00 | 0.00 | 70 | 1015.3 |
| 20260502063047 | 45 | 86 | 1.0 | 7.0 | 0.00 | 0.00 | 0.00 | 73 | 1015.3 |
| 20260502061609 | 45 | 0 | 0.0 | 3.0 | 0.00 | 0.00 | 0.00 | 73 | 1015.4 |
| 20260502060051 | 46 | 98 | 0.0 | 3.0 | 0.00 | 0.00 | 0.00 | 74 | 1015.5 |
| 20260502054553 | 46 | 0 | 1.0 | 5.0 | 0.00 | 0.00 | 0.00 | 73 | 1015.5 |
| 20260502053057 | 46 | 0 | 0.0 | 7.0 | 0.00 | 0.00 | 0.00 | 73 | 1015.4 |
| 20260502051546 | 46 | 166 | 0.0 | 2.0 | 0.00 | 0.00 | 0.00 | 72 | 1015.3 |
| 20260502050053 | 46 | 199 | 0.0 | 3.0 | 0.00 | 0.00 | 0.00 | 71 | 1015.5 |
| 20260502044548 | 47 | 172 | 0.0 | 4.0 | 0.00 | 0.00 | 0.00 | 71 | 1015.4 |
| 20260502043058 | 47 | 178 | 0.0 | 5.0 | 0.00 | 0.00 | 0.00 | 71 | 1015.5 |
| 20260502041553 | 47 | 77 | 0.0 | 2.0 | 0.00 | 0.00 | 0.00 | 71 | 1015.5 |
| 20260502040055 | 48 | 101 | 0.0 | 9.0 | 0.00 | 0.00 | 0.00 | 70 | 1015.5 |
| 20260502034549 | 48 | 138 | 1.0 | 3.0 | 0.00 | 0.00 | 0.00 | 70 | 1015.4 |
| 20260502033048 | 49 | 0 | 0.0 | 4.0 | 0.00 | 0.00 | 0.00 | 69 | 1015.4 |
| 20260502031553 | 49 | 0 | 0.0 | 3.0 | 0.00 | 0.00 | 0.00 | 68 | 1015.6 |
| 20260502024601 | 49 | 137 | 0.0 | 5.0 | 0.00 | 0.00 | 0.00 | 66 | 1015.4 |
| 20260502023052 | 50 | 140 | 0.0 | 3.0 | 0.00 | 0.00 | 0.00 | 67 | 1015.4 |
| 20260502021555 | 50 | 0 | 0.0 | 7.0 | 0.00 | 0.00 | 0.00 | 68 | 1015.1 |
| 20260502020054 | 50 | 0 | 0.0 | 3.0 | 0.00 | 0.00 | 0.00 | 70 | 1015.0 |
| 20260502014551 | 50 | 171 | 0.0 | 6.0 | 0.00 | 0.00 | 0.00 | 70 | 1014.6 |
| 20260502013052 | 51 | 90 | 1.0 | 4.0 | 0.00 | 0.00 | 0.00 | 67 | 1014.3 |
| 20260502011553 | 52 | 191 | 1.0 | 9.0 | 0.00 | 0.00 | 0.00 | 65 | 1014.2 |
| 20260502010101 | 54 | 325 | 1.0 | 6.0 | 0.00 | 0.00 | 0.00 | 60 | 1013.9 |
| 20260502004548 | 55 | 202 | 1.0 | 6.0 | 0.00 | 0.00 | 0.00 | 54 | 1013.2 |
| 20260502003047 | 56 | 128 | 0.0 | 4.0 | 0.00 | 0.00 | 0.00 | 50 | 1012.7 |
| 20260502001546 | 57 | 0 | 0.0 | 4.0 | 0.00 | 0.00 | 0.00 | 47 | 1012.4 |
| 20260502000052 | 58 | 142 | 0.0 | 2.0 | 0.00 | 0.00 | 0.00 | 47 | 1012.2 |
| 20260501234549 | 58 | 180 | 1.0 | 3.0 | 0.00 | 0.00 | 0.00 | 43 | 1011.9 |